Total_Precipitation_Accumulation
0.91 0.88 0.84 0.82 0.75 0.92 1.23 1.43 1.39 1.43 1.40 1.31 1.16 1.01 0.86 0.81 0.76 0.80 0.86 1.05 1.18 1.17 1.20 1.24 1.12 0.94 0.82 0.71 0.61 0.57 0.58 0.61 0.55 0.46 0.42 0.33 0.28 0.31 0.35 0.39 0.39 0.38 0.36
1.40 1.45 1.38 1.28 1.02 1.01 1.10 1.40 1.54 1.72 1.61 1.50 1.05 0.98 1.00 1.02 1.04 1.00 1.01 1.42 1.56 1.25 1.12 1.11 1.13 1.06 0.94 0.79 0.67 0.58 0.54 0.52 0.47 0.39 0.39 0.35 0.28 0.27 0.34 0.41 0.42 0.35 0.26
1.76 1.76 1.52 1.25 1.10 1.22 1.32 1.28 1.30 1.59 1.39 1.25 1.08 1.17 1.22 1.15 1.10 1.06 1.05 1.30 1.42 1.17 0.94 0.86 0.92 0.94 0.96 0.96 0.85 0.77 0.65 0.55 0.47 0.40 0.36 0.31 0.27 0.24 0.25 0.34 0.43 0.38 0.28
1.64 1.65 1.29 0.96 1.08 1.32 1.41 1.35 1.30 1.37 1.34 1.40 1.39 1.36 1.33 1.19 0.98 0.90 0.78 0.75 0.84 0.75 0.79 0.89 0.83 0.78 0.89 1.03 1.09 1.15 0.99 0.75 0.55 0.44 0.39 0.33 0.28 0.22 0.20 0.24 0.32 0.33 0.28
1.28 1.35 1.05 0.89 1.07 1.22 1.24 1.20 1.33 1.44 1.32 1.38 1.45 1.32 1.08 0.93 0.76 0.66 0.59 0.50 0.48 0.50 0.50 0.65 0.69 0.72 0.90 1.13 1.31 1.40 1.32 1.06 0.81 0.64 0.51 0.41 0.34 0.25 0.21 0.19 0.22 0.25 0.23
1.05 1.21 1.09 0.98 1.11 1.18 1.12 1.25 1.35 1.43 1.24 1.21 1.19 0.93 0.75 0.55 0.49 0.42 0.34 0.34 0.33 0.32 0.38 0.48 0.63 0.60 0.82 1.02 1.22 1.42 1.56 1.39 0.99 0.78 0.70 0.62 0.53 0.38 0.25 0.20 0.19 0.21 0.19
1.01 1.15 1.05 0.96 0.95 0.97 0.93 1.08 1.19 1.18 0.97 1.18 1.32 0.87 0.59 0.46 0.37 0.26 0.22 0.23 0.23 0.25 0.35 0.47 0.59 0.59 0.73 0.83 0.98 1.18 1.51 1.56 1.23 0.93 0.81 0.72 0.67 0.51 0.32 0.24 0.20 0.18 0.17
0.86 0.93 0.90 0.81 0.77 0.78 0.78 0.85 0.98 0.98 0.87 1.14 1.27 1.11 0.77 0.56 0.43 0.27 0.24 0.23 0.23 0.30 0.35 0.40 0.56 0.67 0.75 0.97 0.92 0.86 1.08 1.38 1.40 1.22 1.04 0.81 0.70 0.56 0.41 0.33 0.25 0.19 0.15
0.59 0.59 0.59 0.64 0.68 0.68 0.69 0.75 0.90 1.02 0.89 0.92 1.15 1.25 0.97 0.65 0.56 0.43 0.41 0.42 0.41 0.46 0.50 0.60 0.69 0.73 0.80 0.96 0.97 0.97 0.89 1.00 1.29 1.50 1.40 1.05 0.72 0.60 0.57 0.56 0.49 0.34 0.26
0.42 0.41 0.43 0.53 0.60 0.66 0.70 0.65 0.70 0.85 0.90 0.83 0.92 1.03 1.04 1.02 0.94 0.66 0.49 0.45 0.49 0.50 0.52 0.58 0.63 0.71 0.73 0.87 1.13 1.19 1.08 0.95 0.95 1.26 1.45 1.36 1.06 0.74 0.60 0.64 0.85 0.78 0.53
0.41 0.38 0.37 0.39 0.49 0.57 0.64 0.66 0.67 0.72 0.79 0.77 0.79 0.84 0.91 0.99 0.97 0.88 0.64 0.47 0.47 0.47 0.53 0.58 0.63 0.67 0.70 0.86 1.15 1.20 1.21 1.02 0.90 0.91 1.07 1.16 1.07 0.88 0.74 0.82 1.20 1.50 1.32
0.38 0.38 0.38 0.40 0.42 0.43 0.46 0.53 0.59 0.64 0.69 0.71 0.71 0.78 0.87 0.85 0.85 0.94 0.81 0.64 0.58 0.53 0.61 0.67 0.76 0.82 0.81 0.84 0.83 0.89 0.86 0.87 0.81 0.74 0.70 0.72 0.80 0.86 0.88 1.06 1.44 1.78 1.93
0.31 0.35 0.37 0.41 0.47 0.47 0.48 0.49 0.55 0.61 0.68 0.72 0.71 0.75 0.84 0.88 0.88 0.96 0.92 0.76 0.70 0.74 0.83 0.85 0.80 0.83 0.79 0.90 0.81 0.67 0.54 0.55 0.51 0.48 0.47 0.50 0.59 0.70 0.78 0.85 1.04 1.29 1.52
0.27 0.33 0.39 0.42 0.45 0.50 0.53 0.59 0.63 0.68 0.73 0.75 0.74 0.84 0.90 0.88 0.96 1.02 1.07 1.08 0.96 0.96 1.07 0.95 0.74 0.69 0.68 0.67 0.59 0.55 0.56 0.44 0.35 0.29 0.27 0.28 0.32 0.38 0.48 0.59 0.71 0.83 0.97
0.23 0.24 0.31 0.42 0.43 0.46 0.53 0.62 0.67 0.72 0.77 0.82 0.86 0.95 1.01 1.01 1.01 1.01 1.13 1.23 1.24 1.19 1.22 1.08 0.88 0.76 0.66 0.56 0.49 0.50 0.52 0.52 0.36 0.23 0.18 0.16 0.19 0.23 0.27 0.31 0.38 0.48 0.59
0.20 0.20 0.24 0.32 0.35 0.38 0.47 0.59 0.67 0.74 0.85 0.93 0.93 0.96 1.04 1.09 1.13 1.14 1.15 1.22 1.33 1.40 1.34 1.07 0.94 0.85 0.72 0.53 0.46 0.40 0.37 0.41 0.30 0.20 0.15 0.13 0.13 0.14 0.18 0.23 0.28 0.30 0.35
0.17 0.16 0.17 0.18 0.20 0.23 0.31 0.47 0.68 0.79 0.90 0.95 0.97 1.02 1.05 1.12 1.14 1.08 1.14 1.19 1.28 1.39 1.25 1.03 1.05 1.11 0.94 0.69 0.51 0.42 0.30 0.26 0.25 0.22 0.14 0.12 0.10 0.10 0.13 0.16 0.19 0.23 0.25
0.18 0.15 0.14 0.13 0.12 0.15 0.23 0.39 0.56 0.72 0.86 0.98 1.01 1.01 0.92 0.92 1.00 1.06 1.10 1.15 1.18 1.28 1.22 1.13 1.09 1.15 1.05 0.88 0.68 0.47 0.30 0.20 0.20 0.24 0.15 0.11 0.10 0.10 0.12 0.12 0.10 0.13 0.18
0.24 0.20 0.18 0.17 0.21 0.26 0.34 0.43 0.49 0.61 0.76 0.85 0.88 0.86 0.83 0.85 0.86 0.95 1.00 1.04 1.06 1.08 1.12 1.13 1.14 1.23 1.20 0.98 0.72 0.53 0.36 0.27 0.22 0.20 0.15 0.13 0.13 0.13 0.16 0.13 0.09 0.11 0.14
0.22 0.21 0.20 0.25 0.31 0.38 0.41 0.41 0.43 0.50 0.56 0.62 0.67 0.66 0.65 0.70 0.75 0.79 0.82 0.85 0.92 0.97 1.01 1.04 1.12 1.23 1.23 1.16 0.86 0.60 0.41 0.29 0.24 0.19 0.19 0.23 0.26 0.25 0.23 0.19 0.13 0.11 0.12
0.13 0.17 0.22 0.27 0.33 0.36 0.34 0.37 0.41 0.38 0.44 0.44 0.42 0.44 0.47 0.51 0.58 0.66 0.69 0.72 0.78 0.83 0.90 0.98 1.07 1.21 1.22 1.19 0.97 0.69 0.49 0.36 0.28 0.22 0.22 0.27 0.30 0.27 0.24 0.22 0.18 0.12 0.08
0.13 0.18 0.22 0.24 0.26 0.24 0.25 0.26 0.27 0.26 0.29 0.34 0.34 0.32 0.30 0.37 0.44 0.50 0.56 0.61 0.69 0.74 0.81 0.90 1.00 1.10 1.16 1.09 0.97 0.82 0.65 0.42 0.28 0.26 0.34 0.37 0.28 0.29 0.47 0.48 0.32 0.14 0.06
0.17 0.22 0.24 0.25 0.27 0.28 0.18 0.13 0.11 0.16 0.22 0.29 0.34 0.35 0.26 0.21 0.28 0.35 0.42 0.46 0.51 0.58 0.70 0.81 0.89 0.99 1.11 1.11 1.05 0.89 0.78 0.61 0.36 0.21 0.18 0.15 0.13 0.20 0.51 0.69 0.43 0.18 0.10
0.26 0.31 0.31 0.31 0.35 0.32 0.21 0.12 0.09 0.11 0.19 0.26 0.31 0.33 0.30 0.24 0.25 0.29 0.36 0.38 0.38 0.39 0.48 0.61 0.70 0.89 1.17 1.29 1.20 1.12 0.97 0.83 0.62 0.31 0.15 0.12 0.11 0.14 0.19 0.29 0.32 0.19 0.10
0.38 0.39 0.40 0.40 0.42 0.41 0.29 0.17 0.13 0.17 0.25 0.29 0.31 0.32 0.31 0.26 0.21 0.22 0.29 0.35 0.38 0.37 0.42 0.54 0.64 0.81 1.03 1.32 1.38 1.26 1.15 0.90 0.66 0.39 0.17 0.13 0.13 0.13 0.14 0.14 0.20 0.25 0.18
0.54 0.54 0.51 0.49 0.50 0.53 0.44 0.24 0.19 0.26 0.35 0.38 0.43 0.41 0.36 0.33 0.26 0.19 0.24 0.29 0.31 0.34 0.36 0.39 0.49 0.59 0.75 1.00 1.22 1.14 1.00 0.88 0.62 0.40 0.18 0.12 0.13 0.11 0.12 0.11 0.11 0.15 0.22